Weather History for North Las Vegas, NV

Change the Weather History Date:

Tuesday, October 4, 2011

  Actual Average Record
Temperature  
Mean Temperature 66 °F -  
Max Temperature 71 °F 90 °F 100 °F (1952)
Min Temperature 60 °F 63 °F 36 °F (1959)
Cooling Degree Days 1    
Growing Degree Days 16 (Base 50)    
Moisture  
Dew Point 59 °F    
Average Humidity 79    
Maximum Humidity 94    
Minimum Humidity 57    
Precipitation  
Precipitation 0.03 in - - ()
Sea Level Pressure  
Sea Level Pressure 29.82 in    
Wind  
Wind Speed 7 mph (ESE)    
Max Wind Speed 15 mph    
Max Gust Speed -    
Visibility 10 miles    
Events Rain    
Averages and records for this station are not official NWS values.
T = Trace of Precipitation, MM = Missing Value Source: NWS Daily Summary

Daily Weather History Graph

Daily Weather History Graph

Search for Another Location

Airport:

Trip Planner

Search our weather history database for the weather conditions in past years. The results will help you decide how hot, cold, wet, or windy it might be!

Date:

Astronomy

Oct. 04, 2011 Rise Set
Actual Time 6:38 AM PDT 6:20 PM PDT
Civil Twilight 6:12 AM PDT 6:45 PM PDT
Nautical Twilight 5:42 AM PDT 7:15 PM PDT
Astronomical Twilight 5:12 AM PDT 7:45 PM PDT
Moon 2:14 PM PDT (10/4) No Moon Set
Length of Visible Light 12h 33m
Length of Day
11h 42m
First Quarter, 57% of the Moon is Illuminated
Oct 4
First Quarter
Oct 11
Full
Oct 19
Last Quarter
Oct 26
New
Nov 2
First Quarter

Hourly Weather History & Observations

Time (PDT) Temp. Dew Point Humidity Pressure Visibility Wind Dir Wind Speed Gust Speed Precip Events Conditions
12:53 AM 66.9 °F 62.1 °F 84% 29.81 in 10.0 mi SSW 4.6 mph - 0.01 in   Mostly Cloudy
1:53 AM 66.0 °F 62.1 °F 87% 29.81 in 10.0 mi East 8.1 mph - N/A   Overcast
2:53 AM 66.9 °F 61.0 °F 81% 29.82 in 10.0 mi SSW 8.1 mph - 0.01 in   Overcast
3:53 AM 64.4 °F 62.6 °F 94% 29.84 in 7.0 mi SSE 6.9 mph - N/A Rain Rain
4:53 AM 64.0 °F 62.1 °F 93% 29.81 in 10.0 mi Calm Calm - 0.00 in   Partly Cloudy
5:53 AM 64.9 °F 62.1 °F 90% 29.83 in 10.0 mi Calm Calm - 0.01 in Rain Light Rain
6:53 AM 64.9 °F 62.1 °F 90% 29.83 in 10.0 mi Calm Calm - 0.00 in   Mostly Cloudy
7:53 AM 64.9 °F 61.0 °F 87% 29.83 in 10.0 mi SE 6.9 mph - N/A   Mostly Cloudy
8:53 AM 66.0 °F 61.0 °F 84% 29.86 in 10.0 mi ESE 6.9 mph - N/A   Mostly Cloudy
9:53 AM 66.9 °F 62.1 °F 84% 29.85 in 10.0 mi ESE 9.2 mph - 0.00 in   Overcast
10:42 AM 68.0 °F 60.8 °F 78% 29.84 in 10.0 mi ESE 11.5 mph - N/A   Mostly Cloudy
10:53 AM 68.0 °F 61.0 °F 78% 29.85 in 10.0 mi East 11.5 mph - N/A   Overcast
11:20 AM 69.8 °F 60.8 °F 73% 29.83 in 10.0 mi East 11.5 mph - N/A   Overcast
12:53 PM 68.0 °F 60.1 °F 76% 29.81 in 10.0 mi ESE 11.5 mph - N/A   Mostly Cloudy
1:53 PM 68.0 °F 59.0 °F 73% 29.80 in 10.0 mi ESE 12.7 mph - N/A   Clear
2:53 PM 69.8 °F 59.0 °F 68% 29.79 in 10.0 mi East 15.0 mph - N/A   Mostly Cloudy
3:53 PM 71.1 °F 55.0 °F 57% 29.79 in 10.0 mi ENE 10.4 mph - N/A   Partly Cloudy
4:53 PM 68.0 °F 55.9 °F 65% 29.80 in 10.0 mi East 13.8 mph - N/A   Clear
5:53 PM 66.2 °F 53.6 °F 64% 29.79 in 10.0 mi ESE 6.9 mph - N/A   Clear
6:53 PM 64.9 °F 54.0 °F 68% 29.81 in 10.0 mi SE 6.9 mph - N/A   Clear
7:53 PM 64.0 °F 55.0 °F 73% 29.82 in 10.0 mi ENE 3.5 mph - N/A   Clear
8:53 PM 63.0 °F 55.0 °F 75% 29.82 in 10.0 mi ESE 3.5 mph - N/A   Clear
9:53 PM 62.1 °F 55.9 °F 80% 29.81 in 10.0 mi ESE 5.8 mph - N/A   Clear
10:53 PM 61.0 °F 55.9 °F 83% 29.82 in 10.0 mi SSE 3.5 mph - N/A   Clear
11:53 PM 60.8 °F 55.4 °F 82% 29.81 in 10.0 mi ESE 4.6 mph - N/A   Clear